Location: Brompton
(51.4000°N, 0.5333°E)
Time: 09:36:29
(UTC+00:00)

Cosmos 2084 Rocket - Pass Details

Date: 11 May 2021
Orbit: 522 x 658 km, 62.8° (Epoch: 12 June)

Event Time Altitude Azimuth Distance (km) Brightness Sun altitude
Rises 21:50:17 0° 314° (NW) 2,751 8.5 -15.4°
Reaches altitude 10° 21:52:30 10° 319° (NW) 1,873 7.3 -15.6°
Maximum altitude 21:56:40 58° 39° (NE) 689 3.9 -15.9°
Enters shadow 21:59:18 22° 112° (ESE) 1,307 4.8 -16.1°
